User: anonymous   Login
Location: Caltech
(34.1382°N, 118.1253°W)
Time: 19:58:28
(UTC-08:00)
Language:

Cosmos 1833 Rocket - Orbit

View from above orbital plane
View from above orbital plane
View from above satellite
View from above satellite

Ground track
Ground track

The orbit data is extracted from the following two-line orbital elements,

1 17590U 87027B   17050.50213372  .00000170  00000-0  10876-3 0  9995
2 17590  71.0030  37.7872 0003431 145.9752 214.1592 14.16736895547452
Epoch (UTC): 19 February 2017 12:03:04
Eccentricity: 0.0003431
inclination: 71.0030°
perigee height: 834 km
apogee height: 839 km
right ascension of ascending node: 37.7872°
argument of perigee: 145.9752°
revolutions per day: 14.16736895
mean anomaly at epoch: 214.1592°
orbit number at epoch: 54745

The dashed part of the orbit path shows where the satellite is in the earth's shadow,  

DLR